| time (UTC) | temp F | wind direction | speed MPH | gust MPH | rain 1hr in | rain 24hr in | rain mn in | humidity % | barometer mb |
| 20260509145005 | 74 | 218 | 5.0 | 13.0 | 0.00 | 0.00 | 0.00 | 60 | 1011.8 |
| 20260509144505 | 74 | 228 | 11.0 | 21.0 | 0.00 | 0.00 | 0.00 | 60 | 1011.8 |
| 20260509144005 | 74 | 220 | 12.0 | 21.0 | 0.00 | 0.00 | 0.00 | 59 | 1011.9 |
| 20260509143505 | 74 | 195 | 6.0 | 13.0 | 0.00 | 0.00 | 0.00 | 60 | 1011.8 |
| 20260509142505 | 73 | 212 | 5.0 | 24.0 | 0.00 | 0.00 | 0.00 | 61 | 1011.8 |
| 20260509142005 | 73 | 220 | 10.0 | 17.0 | 0.00 | 0.00 | 0.00 | 60 | 1011.9 |
| 20260509141506 | 73 | 217 | 2.0 | 16.0 | 0.00 | 0.00 | 0.00 | 61 | 1011.9 |
| 20260509141005 | 73 | 189 | 4.0 | 16.0 | 0.00 | 0.00 | 0.00 | 61 | 1011.9 |
| 20260509140505 | 73 | 206 | 3.0 | 10.0 | 0.00 | 0.00 | 0.00 | 61 | 1011.9 |
| 20260509135506 | 74 | 222 | 9.0 | 16.0 | 0.00 | 0.00 | 0.00 | 60 | 1011.7 |
| 20260509135005 | 74 | 216 | 4.0 | 14.0 | 0.00 | 0.00 | 0.00 | 61 | 1011.7 |
| 20260509134505 | 73 | 205 | 9.0 | 16.0 | 0.00 | 0.00 | 0.00 | 62 | 1011.7 |
| 20260509134004 | 73 | 208 | 8.0 | 14.0 | 0.00 | 0.00 | 0.00 | 62 | 1011.7 |
| 20260509133505 | 71 | 200 | 7.0 | 13.0 | 0.00 | 0.00 | 0.00 | 64 | 1011.9 |
| 20260509132505 | 70 | 176 | 3.0 | 8.0 | 0.00 | 0.00 | 0.00 | 66 | 1011.9 |
| 20260509132005 | 70 | 209 | 1.0 | 5.0 | 0.00 | 0.00 | 0.00 | 66 | 1011.8 |
| 20260509131505 | 70 | 237 | 1.0 | 12.0 | 0.00 | 0.00 | 0.00 | 67 | 1011.8 |
| 20260509131005 | 70 | 189 | 3.0 | 16.0 | 0.00 | 0.00 | 0.00 | 66 | 1011.9 |
| 20260509130505 | 70 | 196 | 3.0 | 10.0 | 0.00 | 0.00 | 0.00 | 67 | 1012.0 |
| 20260509130005 | 70 | 212 | 8.0 | 14.0 | 0.00 | 0.00 | 0.00 | 69 | 1012.1 |
| 20260509125504 | 67 | 184 | 7.0 | 16.0 | 0.00 | 0.00 | 0.00 | 72 | 1012.2 |
| 20260509125005 | 65 | 211 | 5.0 | 14.0 | 0.00 | 0.00 | 0.00 | 73 | 1012.2 |
| 20260509124505 | 65 | 200 | 5.0 | 9.0 | 0.00 | 0.00 | 0.00 | 74 | 1012.2 |
| 20260509124005 | 65 | 212 | 3.0 | 14.0 | 0.00 | 0.00 | 0.00 | 75 | 1012.2 |
| 20260509123006 | 64 | 189 | 1.0 | 10.0 | 0.00 | 0.00 | 0.00 | 76 | 1012.1 |
| 20260509122505 | 63 | 202 | 1.0 | 3.0 | 0.00 | 0.00 | 0.00 | 77 | 1012.1 |
| 20260509121505 | 62 | 210 | 6.0 | 9.0 | 0.00 | 0.00 | 0.00 | 79 | 1012.1 |
| 20260509120505 | 60 | 197 | 4.0 | 10.0 | 0.00 | 0.00 | 0.00 | 81 | 1012.2 |
| 20260509120005 | 60 | 201 | 2.0 | 9.0 | 0.00 | 0.00 | 0.00 | 82 | 1012.3 |
| 20260509115508 | 60 | 196 | 1.0 | 7.0 | 0.00 | 0.00 | 0.00 | 82 | 1012.3 |
| 20260509115005 | 59 | 208 | 5.0 | 13.0 | 0.00 | 0.00 | 0.00 | 82 | 1012.3 |
| 20260509114506 | 59 | 214 | 1.0 | 6.0 | 0.00 | 0.00 | 0.00 | 83 | 1012.2 |
| 20260509114004 | 59 | 191 | 2.0 | 8.0 | 0.00 | 0.00 | 0.00 | 83 | 1012.3 |
| 20260509113505 | 59 | 184 | 3.0 | 7.0 | 0.00 | 0.00 | 0.00 | 83 | 1012.3 |
| 20260509113005 | 58 | 199 | 3.0 | 9.0 | 0.00 | 0.00 | 0.00 | 83 | 1012.6 |
| 20260509112505 | 58 | 220 | 4.0 | 20.0 | 0.00 | 0.00 | 0.00 | 84 | 1012.6 |
| 20260509112005 | 58 | 228 | 6.0 | 9.0 | 0.00 | 0.00 | 0.00 | 84 | 1012.6 |
| 20260509111505 | 58 | 197 | 2.0 | 14.0 | 0.00 | 0.00 | 0.00 | 84 | 1012.5 |
| 20260509111005 | 58 | 187 | 6.0 | 12.0 | 0.00 | 0.00 | 0.00 | 84 | 1012.6 |
| 20260509110504 | 58 | 194 | 3.0 | 10.0 | 0.00 | 0.00 | 0.00 | 84 | 1012.4 |
| 20260509110004 | 58 | 195 | 5.0 | 8.0 | 0.00 | 0.00 | 0.00 | 84 | 1012.2 |
| 20260509104504 | 57 | 210 | 4.0 | 16.0 | 0.00 | 0.00 | 0.00 | 84 | 1012.2 |
| 20260509103505 | 57 | 228 | 5.0 | 9.0 | 0.00 | 0.00 | 0.00 | 84 | 1012.2 |
| 20260509102505 | 57 | 231 | 3.0 | 14.0 | 0.00 | 0.00 | 0.00 | 84 | 1012.3 |
| 20260509102005 | 57 | 190 | 1.0 | 9.0 | 0.00 | 0.00 | 0.00 | 84 | 1012.2 |
| 20260509101505 | 57 | 203 | 6.0 | 12.0 | 0.00 | 0.00 | 0.00 | 83 | 1012.3 |
| 20260509101005 | 57 | 190 | 3.0 | 13.0 | 0.00 | 0.00 | 0.00 | 83 | 1012.1 |
| 20260509100505 | 57 | 202 | 2.0 | 7.0 | 0.00 | 0.00 | 0.00 | 83 | 1012.0 |
| 20260509100005 | 57 | 214 | 6.0 | 12.0 | 0.00 | 0.00 | 0.00 | 83 | 1012.1 |
| 20260509095504 | 57 | 182 | 6.0 | 13.0 | 0.00 | 0.00 | 0.00 | 83 | 1012.1 |
| 20260509094505 | 57 | 203 | 2.0 | 10.0 | 0.00 | 0.00 | 0.00 | 82 | 1012.3 |
| 20260509094006 | 57 | 211 | 4.0 | 13.0 | 0.00 | 0.00 | 0.00 | 82 | 1012.1 |
| 20260509093505 | 57 | 195 | 5.0 | 10.0 | 0.00 | 0.00 | 0.00 | 82 | 1012.0 |
| 20260509093005 | 57 | 192 | 3.0 | 12.0 | 0.00 | 0.00 | 0.00 | 82 | 1011.9 |
| 20260509092504 | 57 | 192 | 3.0 | 6.0 | 0.00 | 0.00 | 0.00 | 82 | 1011.8 |
| 20260509092004 | 57 | 191 | 3.0 | 7.0 | 0.00 | 0.00 | 0.00 | 82 | 1011.8 |
| 20260509091505 | 56 | 195 | 2.0 | 10.0 | 0.00 | 0.00 | 0.00 | 82 | 1011.8 |
| 20260509090504 | 56 | 210 | 5.0 | 9.0 | 0.00 | 0.00 | 0.00 | 81 | 1012.1 |
| 20260509085504 | 56 | 198 | 2.0 | 7.0 | 0.00 | 0.00 | 0.00 | 81 | 1012.2 |
| 20260509085004 | 56 | 211 | 3.0 | 9.0 | 0.00 | 0.00 | 0.00 | 80 | 1012.1 |
| 20260509084504 | 56 | 191 | 1.0 | 10.0 | 0.00 | 0.00 | 0.00 | 80 | 1012.1 |
| 20260509083504 | 56 | 225 | 2.0 | 6.0 | 0.00 | 0.00 | 0.00 | 80 | 1012.2 |
| 20260509083005 | 56 | 223 | 5.0 | 10.0 | 0.00 | 0.00 | 0.00 | 80 | 1012.2 |
| 20260509082504 | 56 | 211 | 1.0 | 10.0 | 0.00 | 0.00 | 0.00 | 80 | 1012.2 |
| 20260509082004 | 55 | 204 | 3.0 | 14.0 | 0.00 | 0.00 | 0.00 | 80 | 1012.1 |
| 20260509080004 | 55 | 210 | 2.0 | 7.0 | 0.00 | 0.00 | 0.00 | 80 | 1012.3 |
| 20260509075504 | 54 | 190 | 2.0 | 7.0 | 0.00 | 0.00 | 0.00 | 80 | 1012.3 |
| 20260509075004 | 54 | 218 | 2.0 | 9.0 | 0.00 | 0.00 | 0.00 | 80 | 1012.3 |
| 20260509074504 | 54 | 200 | 1.0 | 6.0 | 0.00 | 0.00 | 0.00 | 80 | 1012.4 |
| 20260509074004 | 53 | 183 | 2.0 | 10.0 | 0.00 | 0.00 | 0.00 | 80 | 1012.3 |
| 20260509073505 | 53 | 205 | 2.0 | 7.0 | 0.00 | 0.00 | 0.00 | 80 | 1012.4 |
| 20260509073004 | 53 | 195 | 2.0 | 9.0 | 0.00 | 0.00 | 0.00 | 80 | 1012.4 |
| 20260509072506 | 53 | 205 | 0.0 | 3.0 | 0.00 | 0.00 | 0.00 | 80 | 1012.4 |
| 20260509072004 | 53 | 200 | 1.0 | 6.0 | 0.00 | 0.00 | 0.00 | 80 | 1012.5 |
| 20260509071504 | 53 | 202 | 0.0 | 2.0 | 0.00 | 0.00 | 0.00 | 80 | 1012.4 |
| 20260509071004 | 53 | 185 | 1.0 | 8.0 | 0.00 | 0.00 | 0.00 | 79 | 1012.5 |
| 20260509070505 | 53 | 202 | 0.0 | 5.0 | 0.00 | 0.00 | 0.00 | 79 | 1012.5 |
| 20260509070005 | 53 | 180 | 1.0 | 5.0 | 0.00 | 0.00 | 0.00 | 79 | 1012.4 |
| 20260509065506 | 53 | 202 | 0.0 | 0.0 | 0.00 | 0.00 | 0.00 | 79 | 1012.4 |
| 20260509065004 | 53 | 180 | 0.0 | 2.0 | 0.00 | 0.00 | 0.00 | 78 | 1012.4 |
| 20260509064504 | 53 | 202 | 0.0 | 3.0 | 0.00 | 0.00 | 0.00 | 78 | 1012.5 |
| 20260509064005 | 53 | 191 | 0.0 | 3.0 | 0.00 | 0.00 | 0.00 | 78 | 1012.7 |
| 20260509063504 | 53 | 180 | 0.0 | 0.0 | 0.00 | 0.00 | 0.00 | 77 | 1012.6 |
| 20260509062504 | 53 | 192 | 0.0 | 3.0 | 0.00 | 0.00 | 0.00 | 77 | 1012.7 |
| 20260509062004 | 53 | 191 | 1.0 | 6.0 | 0.00 | 0.00 | 0.00 | 77 | 1012.7 |
| 20260509061505 | 53 | 202 | 0.0 | 0.0 | 0.00 | 0.00 | 0.00 | 77 | 1012.8 |
| 20260509060504 | 53 | 192 | 1.0 | 6.0 | 0.00 | 0.00 | 0.00 | 77 | 1012.9 |
| 20260509060005 | 53 | 202 | 1.0 | 3.0 | 0.00 | 0.00 | 0.00 | 76 | 1012.9 |
| 20260509055504 | 53 | 225 | 1.0 | 6.0 | 0.00 | 0.00 | 0.00 | 76 | 1012.9 |
| 20260509054504 | 53 | 188 | 1.0 | 3.0 | 0.00 | 0.00 | 0.00 | 76 | 1012.9 |
| 20260509054004 | 54 | 205 | 1.0 | 7.0 | 0.00 | 0.00 | 0.00 | 75 | 1012.9 |
| 20260509053504 | 54 | 202 | 0.0 | 0.0 | 0.00 | 0.00 | 0.00 | 74 | 1012.9 |
| 20260509053005 | 54 | 180 | 0.0 | 0.0 | 0.00 | 0.00 | 0.00 | 74 | 1013.0 |
| 20260509052504 | 54 | 202 | 0.0 | 0.0 | 0.00 | 0.00 | 0.00 | 74 | 1013.0 |
| 20260509051504 | 54 | 203 | 0.0 | 0.0 | 0.00 | 0.00 | 0.00 | 73 | 1013.1 |
| 20260509051004 | 54 | 180 | 0.0 | 3.0 | 0.00 | 0.00 | 0.00 | 73 | 1013.0 |
| 20260509050504 | 55 | 196 | 0.0 | 2.0 | 0.00 | 0.00 | 0.00 | 72 | 1013.0 |
| 20260509050004 | 55 | 202 | 0.0 | 0.0 | 0.00 | 0.00 | 0.00 | 72 | 1013.0 |
| 20260509045505 | 55 | 198 | 0.0 | 0.0 | 0.00 | 0.00 | 0.00 | 72 | 1013.0 |
| 20260509045004 | 55 | 198 | 1.0 | 5.0 | 0.00 | 0.00 | 0.00 | 71 | 1013.1 |
| 20260509044504 | 55 | 180 | 0.0 | 5.0 | 0.00 | 0.00 | 0.00 | 71 | 1013.1 |
| 20260509044004 | 55 | 210 | 0.0 | 2.0 | 0.00 | 0.00 | 0.00 | 71 | 1013.1 |
| 20260509043504 | 55 | 192 | 0.0 | 3.0 | 0.00 | 0.00 | 0.00 | 71 | 1013.1 |
| 20260509043005 | 55 | 193 | 0.0 | 0.0 | 0.00 | 0.00 | 0.00 | 71 | 1013.1 |
| 20260509042504 | 55 | 202 | 0.0 | 0.0 | 0.00 | 0.00 | 0.00 | 70 | 1013.2 |
| 20260509042004 | 55 | 180 | 0.0 | 0.0 | 0.00 | 0.00 | 0.00 | 70 | 1013.0 |
| 20260509041504 | 55 | 202 | 0.0 | 0.0 | 0.00 | 0.00 | 0.00 | 69 | 1013.1 |
| 20260509041004 | 55 | 225 | 0.0 | 0.0 | 0.00 | 0.00 | 0.00 | 69 | 1013.2 |
| 20260509040004 | 55 | 225 | 0.0 | 0.0 | 0.00 | 0.00 | 0.00 | 67 | 1013.3 |
| 20260509035504 | 56 | 225 | 0.0 | 0.0 | 0.00 | 0.00 | 0.00 | 67 | 1013.1 |
| 20260509035004 | 56 | 202 | 0.0 | 0.0 | 0.00 | 0.00 | 0.00 | 66 | 1013.1 |
| 20260509034504 | 56 | 199 | 0.0 | 0.0 | 0.00 | 0.00 | 0.00 | 66 | 1013.1 |
| 20260509034004 | 56 | 202 | 0.0 | 2.0 | 0.00 | 0.00 | 0.00 | 66 | 1013.1 |
| 20260509033504 | 57 | 198 | 0.0 | 5.0 | 0.00 | 0.00 | 0.00 | 65 | 1013.2 |
| 20260509033004 | 57 | 202 | 0.0 | 0.0 | 0.00 | 0.00 | 0.00 | 64 | 1013.2 |
| 20260509032504 | 57 | 200 | 0.0 | 5.0 | 0.00 | 0.00 | 0.00 | 63 | 1013.1 |
| 20260509032005 | 57 | 208 | 0.0 | 8.0 | 0.00 | 0.00 | 0.00 | 63 | 1013.0 |
| 20260509031504 | 57 | 224 | 1.0 | 3.0 | 0.00 | 0.00 | 0.00 | 62 | 1013.1 |
| 20260509030504 | 58 | 180 | 0.0 | 3.0 | 0.00 | 0.00 | 0.00 | 61 | 1013.2 |
| 20260509025504 | 59 | 202 | 0.0 | 0.0 | 0.00 | 0.00 | 0.00 | 60 | 1013.1 |
| 20260509025004 | 59 | 202 | 0.0 | 2.0 | 0.00 | 0.00 | 0.00 | 59 | 1013.1 |
| 20260509024504 | 60 | 213 | 1.0 | 7.0 | 0.00 | 0.00 | 0.00 | 59 | 1013.0 |
| 20260509024005 | 60 | 227 | 0.0 | 5.0 | 0.00 | 0.00 | 0.00 | 58 | 1013.1 |
| 20260509023504 | 60 | 212 | 1.0 | 6.0 | 0.00 | 0.00 | 0.00 | 58 | 1013.0 |
| 20260509023004 | 60 | 184 | 1.0 | 8.0 | 0.00 | 0.00 | 0.00 | 57 | 1013.1 |
| 20260509022003 | 61 | 210 | 3.0 | 14.0 | 0.00 | 0.00 | 0.00 | 57 | 1013.0 |
| 20260509021504 | 61 | 215 | 0.0 | 6.0 | 0.00 | 0.00 | 0.00 | 57 | 1013.0 |
| 20260509021005 | 61 | 201 | 2.0 | 12.0 | 0.00 | 0.00 | 0.00 | 57 | 1013.1 |
| 20260509020504 | 61 | 219 | 0.0 | 5.0 | 0.00 | 0.00 | 0.00 | 57 | 1013.1 |
| 20260509020005 | 61 | 215 | 1.0 | 7.0 | 0.00 | 0.00 | 0.00 | 56 | 1013.1 |
| 20260509015503 | 61 | 180 | 0.0 | 6.0 | 0.00 | 0.00 | 0.00 | 56 | 1012.9 |
| 20260509015004 | 61 | 213 | 0.0 | 0.0 | 0.00 | 0.00 | 0.00 | 56 | 1012.9 |
| 20260509014504 | 61 | 208 | 1.0 | 7.0 | 0.00 | 0.00 | 0.00 | 55 | 1012.9 |
| 20260509014004 | 62 | 225 | 1.0 | 5.0 | 0.00 | 0.00 | 0.00 | 55 | 1012.8 |
| 20260509013504 | 62 | 201 | 1.0 | 7.0 | 0.00 | 0.00 | 0.00 | 55 | 1012.7 |
| 20260509012004 | 62 | 199 | 3.0 | 12.0 | 0.00 | 0.00 | 0.00 | 55 | 1012.5 |
| 20260509011004 | 62 | 209 | 1.0 | 12.0 | 0.00 | 0.00 | 0.00 | 57 | 1012.2 |
| 20260509010504 | 62 | 210 | 2.0 | 13.0 | 0.00 | 0.00 | 0.00 | 57 | 1012.3 |
| 20260509010004 | 62 | 196 | 2.0 | 8.0 | 0.00 | 0.00 | 0.00 | 58 | 1012.3 |
| 20260509005504 | 62 | 197 | 3.0 | 15.0 | 0.00 | 0.00 | 0.00 | 58 | 1012.2 |
| 20260509005004 | 62 | 193 | 1.0 | 6.0 | 0.00 | 0.00 | 0.00 | 59 | 1012.0 |
| 20260509004004 | 61 | 207 | 3.0 | 12.0 | 0.00 | 0.00 | 0.00 | 61 | 1011.7 |
| 20260509003504 | 61 | 218 | 1.0 | 10.0 | 0.00 | 0.00 | 0.00 | 62 | 1011.7 |
| 20260509003004 | 61 | 194 | 0.0 | 3.0 | 0.00 | 0.00 | 0.00 | 63 | 1011.6 |
| 20260509002505 | 61 | 180 | 1.0 | 10.0 | 0.00 | 0.00 | 0.00 | 63 | 1011.6 |
| 20260509002004 | 61 | 195 | 0.0 | 7.0 | 0.00 | 0.00 | 0.00 | 63 | 1011.5 |
| 20260509001504 | 61 | 204 | 1.0 | 7.0 | 0.00 | 0.00 | 0.00 | 63 | 1011.6 |
| 20260509000006 | 61 | 202 | 2.0 | 5.0 | 0.00 | 0.00 | 0.00 | 62 | 1011.5 |
| 20260508235506 | 61 | 207 | 1.0 | 5.0 | 0.00 | 0.00 | 0.00 | 61 | 1011.5 |
| 20260508235006 | 61 | 224 | 0.0 | 3.0 | 0.00 | 0.00 | 0.00 | 60 | 1011.6 |
| 20260508234505 | 62 | 212 | 0.0 | 5.0 | 0.00 | 0.00 | 0.00 | 60 | 1011.5 |
| 20260508234006 | 62 | 202 | 1.0 | 5.0 | 0.00 | 0.00 | 0.00 | 59 | 1011.5 |
| 20260508233505 | 62 | 202 | 0.0 | 8.0 | 0.00 | 0.00 | 0.00 | 59 | 1011.4 |
| 20260508233006 | 62 | 209 | 2.0 | 6.0 | 0.00 | 0.00 | 0.00 | 58 | 1011.4 |
| 20260508232505 | 62 | 199 | 1.0 | 8.0 | 0.00 | 0.00 | 0.00 | 58 | 1011.4 |
| 20260508232005 | 62 | 214 | 0.0 | 8.0 | 0.00 | 0.00 | 0.00 | 57 | 1011.3 |
| 20260508231505 | 62 | 190 | 2.0 | 6.0 | 0.00 | 0.00 | 0.00 | 57 | 1011.3 |
| 20260508231006 | 62 | 201 | 2.0 | 7.0 | 0.00 | 0.00 | 0.00 | 57 | 1011.2 |
| 20260508230505 | 63 | 220 | 4.0 | 9.0 | 0.00 | 0.00 | 0.00 | 56 | 1011.3 |
| 20260508230005 | 63 | 207 | 3.0 | 10.0 | 0.00 | 0.00 | 0.00 | 56 | 1011.2 |
| 20260508225505 | 63 | 211 | 5.0 | 13.0 | 0.00 | 0.00 | 0.00 | 56 | 1011.2 |
| 20260508225005 | 63 | 205 | 2.0 | 13.0 | 0.00 | 0.00 | 0.00 | 55 | 1011.3 |
| 20260508224505 | 63 | 192 | 5.0 | 13.0 | 0.00 | 0.00 | 0.00 | 54 | 1011.2 |
| 20260508224005 | 64 | 229 | 1.0 | 10.0 | 0.00 | 0.00 | 0.00 | 53 | 1011.3 |
| 20260508223505 | 64 | 205 | 4.0 | 15.0 | 0.00 | 0.00 | 0.00 | 53 | 1011.1 |
| 20260508223005 | 64 | 216 | 7.0 | 9.0 | 0.00 | 0.00 | 0.00 | 52 | 1011.1 |
| 20260508222506 | 64 | 221 | 3.0 | 13.0 | 0.00 | 0.00 | 0.00 | 52 | 1011.0 |
| 20260508222005 | 65 | 208 | 0.0 | 14.0 | 0.00 | 0.00 | 0.00 | 51 | 1011.0 |
| 20260508221506 | 65 | 201 | 2.0 | 9.0 | 0.00 | 0.00 | 0.00 | 50 | 1011.0 |
| 20260508220505 | 66 | 225 | 4.0 | 12.0 | 0.00 | 0.00 | 0.00 | 49 | 1011.1 |
| 20260508215506 | 67 | 215 | 5.0 | 14.0 | 0.00 | 0.00 | 0.00 | 48 | 1011.0 |
| 20260508215006 | 68 | 184 | 2.0 | 13.0 | 0.00 | 0.00 | 0.00 | 48 | 1011.0 |
| 20260508214506 | 68 | 212 | 5.0 | 12.0 | 0.00 | 0.00 | 0.00 | 47 | 1011.0 |
| 20260508214005 | 68 | 143 | 2.0 | 12.0 | 0.00 | 0.00 | 0.00 | 48 | 1011.0 |
| 20260508213505 | 68 | 206 | 3.0 | 10.0 | 0.00 | 0.00 | 0.00 | 47 | 1011.0 |
| 20260508213005 | 68 | 245 | 8.0 | 15.0 | 0.00 | 0.00 | 0.00 | 47 | 1011.1 |
| 20260508212506 | 68 | 225 | 6.0 | 13.0 | 0.00 | 0.00 | 0.00 | 46 | 1011.1 |
| 20260508212005 | 69 | 227 | 3.0 | 12.0 | 0.00 | 0.00 | 0.00 | 44 | 1011.1 |
| 20260508211522 | 70 | 223 | 5.0 | 10.0 | 0.00 | 0.00 | 0.00 | 43 | 1011.0 |
| 20260508210526 | 70 | 199 | 1.0 | 15.0 | 0.00 | 0.00 | 0.00 | 43 | 1011.1 |
| 20260508210005 | 70 | 213 | 7.0 | 16.0 | 0.00 | 0.00 | 0.00 | 42 | 1011.1 |
| 20260508205005 | 71 | 233 | 3.0 | 12.0 | 0.00 | 0.00 | 0.00 | 41 | 1011.0 |
| 20260508204505 | 72 | 212 | 3.0 | 14.0 | 0.00 | 0.00 | 0.00 | 41 | 1011.1 |
| 20260508204005 | 73 | 221 | 4.0 | 12.0 | 0.00 | 0.00 | 0.00 | 40 | 1011.1 |
| 20260508202505 | 73 | 199 | 0.0 | 7.0 | 0.00 | 0.00 | 0.00 | 38 | 1011.1 |
| 20260508202005 | 73 | 231 | 4.0 | 10.0 | 0.00 | 0.00 | 0.00 | 39 | 1011.1 |
| 20260508201505 | 73 | 214 | 2.0 | 21.0 | 0.00 | 0.00 | 0.00 | 39 | 1011.2 |
| 20260508201005 | 73 | 210 | 1.0 | 21.0 | 0.00 | 0.00 | 0.00 | 38 | 1011.2 |
| 20260508200504 | 73 | 237 | 5.0 | 17.0 | 0.00 | 0.00 | 0.00 | 37 | 1011.3 |
| 20260508200006 | 74 | 249 | 0.0 | 0.0 | 0.00 | 0.00 | 0.00 | 38 | 1011.4 |
| 20260508195505 | 74 | 240 | 3.0 | 14.0 | 0.00 | 0.00 | 0.00 | 37 | 1011.4 |
| 20260508195005 | 74 | 225 | 5.0 | 15.0 | 0.00 | 0.00 | 0.00 | 37 | 1011.4 |
| 20260508194505 | 74 | 266 | 1.0 | 5.0 | 0.00 | 0.00 | 0.00 | 38 | 1011.5 |
| 20260508194005 | 73 | 270 | 0.0 | 7.0 | 0.00 | 0.00 | 0.00 | 38 | 1011.5 |
| 20260508193505 | 73 | 245 | 1.0 | 9.0 | 0.00 | 0.00 | 0.00 | 37 | 1011.4 |
| 20260508193005 | 73 | 207 | 5.0 | 12.0 | 0.00 | 0.00 | 0.00 | 36 | 1011.5 |
| 20260508192505 | 74 | 225 | 1.0 | 3.0 | 0.00 | 0.00 | 0.00 | 36 | 1011.6 |
| 20260508191505 | 74 | 282 | 0.0 | 0.0 | 0.00 | 0.00 | 0.00 | 36 | 1011.9 |
| 20260508191005 | 75 | 169 | 0.0 | 15.0 | 0.00 | 0.00 | 0.00 | 35 | 1011.8 |
| 20260508190505 | 76 | 248 | 1.0 | 7.0 | 0.00 | 0.00 | 0.00 | 35 | 1011.8 |
| 20260508185505 | 76 | 292 | 0.0 | 16.0 | 0.00 | 0.00 | 0.00 | 34 | 1011.9 |
| 20260508185005 | 78 | 236 | 7.0 | 20.0 | 0.00 | 0.00 | 0.00 | 33 | 1011.9 |
| 20260508184505 | 80 | 197 | 3.0 | 10.0 | 0.00 | 0.00 | 0.00 | 32 | 1012.1 |
| 20260508184006 | 82 | 234 | 2.0 | 13.0 | 0.00 | 0.00 | 0.00 | 32 | 1012.2 |
| 20260508183505 | 83 | 237 | 1.0 | 5.0 | 0.00 | 0.00 | 0.00 | 31 | 1012.4 |
| 20260508183005 | 85 | 234 | 6.0 | 18.0 | 0.00 | 0.00 | 0.00 | 31 | 1012.3 |
| 20260508182505 | 85 | 285 | 0.0 | 0.0 | 0.00 | 0.00 | 0.00 | 31 | 1012.6 |
| 20260508182005 | 84 | 177 | 2.0 | 6.0 | 0.00 | 0.00 | 0.00 | 31 | 1012.6 |
| 20260508181505 | 83 | 29 | 0.0 | 2.0 | 0.00 | 0.00 | 0.00 | 32 | 1012.5 |
| 20260508181005 | 83 | 272 | 1.0 | 9.0 | 0.00 | 0.00 | 0.00 | 32 | 1012.6 |
| 20260508180505 | 83 | 297 | 0.0 | 10.0 | 0.00 | 0.00 | 0.00 | 32 | 1012.6 |
| 20260508180005 | 84 | 209 | 2.0 | 14.0 | 0.00 | 0.00 | 0.00 | 31 | 1012.6 |
| 20260508175005 | 84 | 242 | 0.0 | 10.0 | 0.00 | 0.00 | 0.00 | 32 | 1012.7 |
| 20260508174005 | 85 | 247 | 2.0 | 14.0 | 0.00 | 0.00 | 0.00 | 31 | 1012.6 |
| 20260508172505 | 86 | 207 | 0.0 | 0.0 | 0.00 | 0.00 | 0.00 | 32 | 1012.6 |
| 20260508172005 | 85 | 245 | 0.0 | 3.0 | 0.00 | 0.00 | 0.00 | 33 | 1012.8 |
| 20260508171505 | 85 | 215 | 2.0 | 13.0 | 0.00 | 0.00 | 0.00 | 33 | 1013.0 |
| 20260508171005 | 84 | 185 | 0.0 | 0.0 | 0.00 | 0.00 | 0.00 | 34 | 1012.8 |
| 20260508170506 | 83 | 248 | 0.0 | 0.0 | 0.00 | 0.00 | 0.00 | 34 | 1012.9 |
| 20260508170005 | 83 | 270 | 1.0 | 15.0 | 0.00 | 0.00 | 0.00 | 33 | 1013.0 |
| 20260508165505 | 82 | 336 | 3.0 | 14.0 | 0.00 | 0.00 | 0.00 | 34 | 1013.1 |
| 20260508164505 | 83 | 217 | 5.0 | 14.0 | 0.00 | 0.00 | 0.00 | 33 | 1013.1 |
| 20260508163505 | 81 | 270 | 0.0 | 0.0 | 0.00 | 0.00 | 0.00 | 36 | 1013.5 |
| 20260508163005 | 79 | 248 | 0.0 | 12.0 | 0.00 | 0.00 | 0.00 | 37 | 1013.4 |
| 20260508162505 | 77 | 228 | 1.0 | 10.0 | 0.00 | 0.00 | 0.00 | 38 | 1013.5 |
| 20260508162005 | 77 | 216 | 2.0 | 12.0 | 0.00 | 0.00 | 0.00 | 38 | 1013.5 |
| 20260508161505 | 77 | 254 | 1.0 | 5.0 | 0.00 | 0.00 | 0.00 | 37 | 1013.5 |
| 20260508160005 | 79 | 223 | 2.0 | 13.0 | 0.00 | 0.00 | 0.00 | 37 | 1013.7 |
| 20260508155505 | 79 | 292 | 1.0 | 3.0 | 0.00 | 0.00 | 0.00 | 37 | 1013.7 |
| 20260508155005 | 79 | 284 | 0.0 | 6.0 | 0.00 | 0.00 | 0.00 | 37 | 1013.6 |
| 20260508154504 | 79 | 270 | 0.0 | 3.0 | 0.00 | 0.00 | 0.00 | 37 | 1013.7 |
| 20260508154005 | 78 | 172 | 4.0 | 9.0 | 0.00 | 0.00 | 0.00 | 37 | 1013.8 |
| 20260508153504 | 78 | 248 | 0.0 | 2.0 | 0.00 | 0.00 | 0.00 | 39 | 1013.8 |
| 20260508153005 | 78 | 252 | 0.0 | 0.0 | 0.00 | 0.00 | 0.00 | 38 | 1013.9 |
| 20260508152504 | 78 | 223 | 0.0 | 3.0 | 0.00 | 0.00 | 0.00 | 39 | 1013.9 |
| 20260508152004 | 78 | 315 | 0.0 | 0.0 | 0.00 | 0.00 | 0.00 | 39 | 1013.9 |
| 20260508151004 | 75 | 180 | 0.0 | 0.0 | 0.00 | 0.00 | 0.00 | 41 | 1013.8 |
| 20260508150505 | 74 | 200 | 1.0 | 5.0 | 0.00 | 0.00 | 0.00 | 41 | 1013.9 |
| 20260508150005 | 72 | 203 | 1.0 | 9.0 | 0.00 | 0.00 | 0.00 | 42 | 1013.9 |
| 20260508145504 | 71 | 202 | 0.0 | 0.0 | 0.00 | 0.00 | 0.00 | 41 | 1014.2 |